Starlink 34385

operational
NORAD ID: 64352 Int'l Des: 2025-126 Owner: SPXS Country: US Constellation: starlink
LEOCIRCULAR

Starlink 34385について

説明を読み込み中...

リアルタイム位置

3D地球を読み込み中...

次回通過

高度履歴

Altitude vs Time

uPlot chart will show altitude changes over time

軌道要素

1 64352U 25126J 25341.19416942 .00023826 00000-0 19964-2 0 9999
2 64352 70.0016 267.8010 0002845 274.4387 85.6447 14.98358203 26829
Epoch: Dec 7, 2025 • Age: 17 hours

現在のステータス

高度 577.7 km
速度 7.57 km/s
衛星直下点 -17.88°S, 52.32°E
打ち上げ日 Jun 13, 2025
運用期間 0.4 years
タイプ internet

技術仕様

分類 Payload
質量 575.00 kg
乾燥質量 530.00 kg
総質量 575.00 kg
長さ 0.30 m
直径 4.10 m
スパン 29.00 m
形状 Box + pan
製造者 SPXS
バスタイプ Starlink V2MO
フェーズステータス In Orbit
所有者/国 SPXS/US

大規模コンステレーション

Loading constellations...